UAE751 OMDB-GMMN

Flight info

Callsign UAE751
Flight time N/A
Altitude 37000
Route ANVIX L223 TARDI N629 BOTAM Y855 LAKLU Q204 NALKI G652 TOKRA DCT ALROK DCT BOSOB DCT ITRUX Y511 PMA Z712 WEJ L677 CVO L617 NABSI M872 METRU DCT ARLOS DCT OMENI UL874 DIMAO UZ888 ORSUP UA411 FES UR975 SADIC
Aircraft A388/J-SADE2E3FGHIJ3J4J5M1RWXY/LB1D1

Departure

Time 2026-05-07 20:47
Airport Dubai International Airport (OMDB)

Arrival

Time N/A
Airport Mohammed V International Airport (GMMN)
Time Latitude Longitude Altitude Speed Heading
2026-05-07 20:20 25.24436 55.37222 29 ft 0 kts 211°
2026-05-07 20:36 25.24439 55.37224 26 ft 3 kts 211°
2026-05-07 20:36 25.24456 55.37236 32 ft 3 kts 211°
2026-05-07 20:36 25.24474 55.37248 30 ft 3 kts 211°
2026-05-07 20:36 25.24489 55.37257 32 ft 3 kts 198°
2026-05-07 20:37 25.24508 55.37260 32 ft 3 kts 163°
2026-05-07 20:37 25.24524 55.37251 32 ft 3 kts 131°
2026-05-07 20:37 25.24536 55.37233 32 ft 3 kts 122°
2026-05-07 20:37 25.24547 55.37214 32 ft 3 kts 122°
2026-05-07 20:38 25.24553 55.37202 32 ft 0 kts 122°
2026-05-07 20:41 25.24549 55.37210 31 ft 3 kts 122°
2026-05-07 20:41 25.24530 55.37243 30 ft 7 kts 122°
2026-05-07 20:42 25.24500 55.37297 29 ft 10 kts 122°
2026-05-07 20:42 25.24462 55.37364 31 ft 11 kts 122°
2026-05-07 20:42 25.24416 55.37446 31 ft 14 kts 122°
2026-05-07 20:42 25.24363 55.37541 31 ft 15 kts 122°
2026-05-07 20:43 25.24312 55.37632 27 ft 14 kts 122°
2026-05-07 20:43 25.24270 55.37707 30 ft 5 kts 122°
2026-05-07 20:43 25.24256 55.37748 29 ft 6 kts 86°
2026-05-07 20:43 25.24268 55.37780 26 ft 4 kts 44°
2026-05-07 20:44 25.24372 55.37853 27 ft 22 kts 31°
2026-05-07 20:44 25.24492 55.37941 30 ft 20 kts 34°
2026-05-07 20:44 25.24602 55.38026 28 ft 10 kts 33°
2026-05-07 20:44 25.24631 55.38046 28 ft 0 kts 32°
2026-05-07 20:45 25.24637 55.38050 28 ft 3 kts 32°
2026-05-07 20:45 25.24671 55.38073 29 ft 8 kts 32°
2026-05-07 20:46 25.24727 55.38111 31 ft 9 kts 21°
2026-05-07 20:46 25.24771 55.38093 31 ft 7 kts 301°
2026-05-07 20:46 25.24806 55.38027 30 ft 18 kts 300°
2026-05-07 20:46 25.24997 55.37685 31 ft 86 kts 301°
2026-05-07 20:47 25.25410 55.36938 30 ft 139 kts 301°
2026-05-07 20:47 25.25982 55.35911 29 ft 171 kts 302°
2026-05-07 20:47 25.26628 55.34773 368 ft 172 kts 302°
2026-05-07 20:47 25.27256 55.33674 743 ft 175 kts 301°
2026-05-07 20:48 25.27902 55.32508 1047 ft 178 kts 300°
2026-05-07 20:48 25.28533 55.31344 1501 ft 175 kts 300°
2026-05-07 20:48 25.29148 55.30190 1850 ft 176 kts 294°
2026-05-07 20:48 25.29314 55.28851 2008 ft 183 kts 258°
2026-05-07 20:49 25.28781 55.27575 2221 ft 186 kts 244°
2026-05-07 20:49 25.28178 55.26267 2306 ft 194 kts 247°
2026-05-07 20:49 25.27597 55.24909 2501 ft 195 kts 248°
2026-05-07 20:49 25.27026 55.23546 2713 ft 196 kts 248°
2026-05-07 20:50 25.26451 55.22176 2917 ft 197 kts 247°
2026-05-07 20:50 25.25872 55.20802 3084 ft 200 kts 247°
2026-05-07 20:50 25.25272 55.19385 3145 ft 207 kts 246°
2026-05-07 20:50 25.24514 55.17990 3206 ft 225 kts 229°
2026-05-07 20:51 25.23184 55.16954 3330 ft 248 kts 202°
2026-05-07 20:51 25.21417 55.16694 3491 ft 268 kts 178°
2026-05-07 20:51 25.19542 55.17050 3779 ft 279 kts 159°
2026-05-07 20:51 25.17946 55.18256 4327 ft 282 kts 133°
2026-05-07 20:52 25.16892 55.20084 4822 ft 284 kts 118°
2026-05-07 20:52 25.16008 55.22039 5313 ft 286 kts 117°
2026-05-07 20:52 25.15122 55.24013 5794 ft 288 kts 117°
2026-05-07 20:52 25.14211 55.25987 6300 ft 290 kts 117°
2026-05-07 20:53 25.13289 55.27943 6739 ft 293 kts 118°
2026-05-07 20:53 25.12336 55.29936 7235 ft 295 kts 118°
2026-05-07 20:53 25.11371 55.31942 7683 ft 297 kts 118°
2026-05-07 20:53 25.10428 55.33978 8172 ft 299 kts 115°
2026-05-07 20:54 25.09572 55.36081 8663 ft 302 kts 115°
2026-05-07 20:54 25.08706 55.38196 9177 ft 304 kts 115°
2026-05-07 20:54 25.07830 55.40323 9687 ft 306 kts 115°
2026-05-07 20:54 25.06946 55.42470 10182 ft 307 kts 114°
2026-05-07 20:55 25.06096 55.44638 10608 ft 312 kts 113°
2026-05-07 20:55 25.05247 55.46866 10746 ft 327 kts 113°
2026-05-07 20:55 25.04350 55.49229 10878 ft 341 kts 113°
2026-05-07 20:55 25.03415 55.51677 11040 ft 353 kts 113°
2026-05-07 20:56 25.02451 55.54186 11508 ft 355 kts 113°
2026-05-07 20:56 25.01351 55.56614 12033 ft 355 kts 121°
2026-05-07 20:56 25.00073 55.58935 12591 ft 354 kts 121°
2026-05-07 20:56 24.98806 55.61268 13136 ft 355 kts 120°
2026-05-07 20:57 24.97559 55.63576 13686 ft 355 kts 120°
2026-05-07 20:57 24.96295 55.65919 14125 ft 357 kts 120°
2026-05-07 20:57 24.95021 55.68281 14541 ft 360 kts 120°
2026-05-07 20:57 24.93685 55.70626 14940 ft 363 kts 125°
2026-05-07 20:58 24.92182 55.72871 15367 ft 365 kts 126°
2026-05-07 20:58 24.90673 55.75137 15786 ft 368 kts 126°
2026-05-07 20:58 24.89160 55.77418 16201 ft 371 kts 126°
2026-05-07 20:58 24.87635 55.79721 16604 ft 373 kts 125°
2026-05-07 20:59 24.86119 55.82008 17007 ft 376 kts 126°
2026-05-07 20:59 24.84570 55.84344 17429 ft 379 kts 125°
2026-05-07 20:59 24.83008 55.86688 17821 ft 381 kts 126°
2026-05-07 20:59 24.81417 55.89039 18201 ft 384 kts 126°
2026-05-07 21:00 24.79811 55.91401 18563 ft 386 kts 126°
2026-05-07 21:00 24.78149 55.93729 18924 ft 389 kts 131°
2026-05-07 21:00 24.76227 55.95834 19255 ft 391 kts 137°
2026-05-07 21:00 24.74218 55.97869 19552 ft 394 kts 137°
2026-05-07 21:01 24.72237 55.99902 19891 ft 396 kts 136°
2026-05-07 21:01 24.70225 56.01973 20220 ft 398 kts 137°
2026-05-07 21:01 24.68199 56.04059 20579 ft 399 kts 137°
2026-05-07 21:01 24.66164 56.06155 20869 ft 402 kts 137°
2026-05-07 21:02 24.64115 56.08266 21173 ft 405 kts 137°
2026-05-07 21:02 24.62056 56.10387 21475 ft 407 kts 137°
2026-05-07 21:02 24.59981 56.12521 21775 ft 410 kts 137°
2026-05-07 21:02 24.57895 56.14666 22103 ft 411 kts 137°
2026-05-07 21:03 24.55951 56.16925 22384 ft 414 kts 131°
2026-05-07 21:03 24.54078 56.19344 22683 ft 417 kts 131°
2026-05-07 21:03 24.52185 56.21766 22990 ft 419 kts 131°
2026-05-07 21:03 24.50276 56.24197 23287 ft 421 kts 131°
2026-05-07 21:04 24.48357 56.26639 23550 ft 423 kts 131°
2026-05-07 21:04 24.46428 56.29091 23790 ft 425 kts 131°
2026-05-07 21:04 24.44490 56.31555 24016 ft 427 kts 132°
2026-05-07 21:04 24.42542 56.34031 24242 ft 430 kts 132°
2026-05-07 21:05 24.40608 56.36487 24468 ft 432 kts 131°
2026-05-07 21:05 24.38643 56.38982 24697 ft 434 kts 132°
2026-05-07 21:05 24.36663 56.41495 24923 ft 436 kts 132°
2026-05-07 21:05 24.34675 56.44018 25127 ft 439 kts 132°
2026-05-07 21:06 24.32675 56.46553 25370 ft 440 kts 132°
2026-05-07 21:06 24.30665 56.49100 25597 ft 442 kts 132°
2026-05-07 21:06 24.28758 56.51757 25833 ft 445 kts 127°
2026-05-07 21:06 24.26943 56.54520 26063 ft 448 kts 127°
2026-05-07 21:07 24.25138 56.57252 26304 ft 450 kts 127°
2026-05-07 21:07 24.23295 56.60031 26565 ft 452 kts 127°
2026-05-07 21:07 24.21441 56.62823 26834 ft 454 kts 127°
2026-05-07 21:07 24.19576 56.65628 27080 ft 457 kts 127°
2026-05-07 21:08 24.17701 56.68448 27349 ft 459 kts 127°
2026-05-07 21:08 24.15817 56.71279 27633 ft 461 kts 127°
2026-05-07 21:08 24.13922 56.74127 27898 ft 464 kts 127°
2026-05-07 21:08 24.12015 56.76990 28184 ft 467 kts 128°
2026-05-07 21:09 24.10122 56.79830 28468 ft 469 kts 128°
2026-05-07 21:09 24.08196 56.82717 28762 ft 472 kts 128°
2026-05-07 21:09 24.06187 56.85564 29021 ft 473 kts 134°
2026-05-07 21:09 24.03749 56.87972 29323 ft 472 kts 147°
2026-05-07 21:10 24.00920 56.89784 29626 ft 471 kts 159°
2026-05-07 21:10 23.97826 56.90939 29916 ft 470 kts 168°
2026-05-07 21:10 23.94631 56.91721 30227 ft 471 kts 171°
2026-05-07 21:10 23.91420 56.92451 30547 ft 472 kts 170°
2026-05-07 21:11 23.88205 56.93222 30865 ft 474 kts 169°
2026-05-07 21:11 23.85030 56.94028 31198 ft 476 kts 169°
2026-05-07 21:11 23.78575 56.95738 31773 ft 479 kts 168°
2026-05-07 21:12 23.75334 56.96609 32105 ft 480 kts 168°
2026-05-07 21:12 23.72083 56.97482 32415 ft 482 kts 168°
2026-05-07 21:12 23.68821 56.98357 32718 ft 484 kts 168°
2026-05-07 21:12 23.65554 56.99232 33033 ft 485 kts 168°
2026-05-07 21:13 23.62264 57.00113 33328 ft 487 kts 168°
2026-05-07 21:13 23.59019 57.00982 33650 ft 488 kts 168°
2026-05-07 21:13 23.55713 57.01866 33935 ft 490 kts 168°
2026-05-07 21:13 23.52399 57.02752 34233 ft 491 kts 168°
2026-05-07 21:14 23.49078 57.03639 34489 ft 492 kts 168°
2026-05-07 21:14 23.45746 57.04529 34774 ft 493 kts 168°
2026-05-07 21:14 23.42407 57.05396 35100 ft 492 kts 171°
2026-05-07 21:14 23.39076 57.05888 35482 ft 488 kts 179°
2026-05-07 21:15 23.35704 57.05910 35871 ft 484 kts 186°
2026-05-07 21:15 23.32371 57.05470 36228 ft 481 kts 193°
2026-05-07 21:15 23.29108 57.04690 36563 ft 480 kts 194°
2026-05-07 21:15 23.25846 57.03908 36858 ft 480 kts 194°
2026-05-07 21:16 23.19263 57.02360 36949 ft 484 kts 193°
2026-05-07 21:16 23.12747 57.00831 36948 ft 483 kts 193°
2026-05-07 21:17 23.06171 56.99286 36948 ft 484 kts 193°
2026-05-07 21:17 22.99592 56.97741 36941 ft 485 kts 193°
2026-05-07 21:18 22.93005 56.96197 36944 ft 485 kts 193°
2026-05-07 21:18 22.86656 56.93858 36923 ft 482 kts 210°
2026-05-07 21:19 22.81373 56.89530 36914 ft 480 kts 227°
2026-05-07 21:19 22.77569 56.83612 36911 ft 480 kts 243°
2026-05-07 21:20 22.74508 56.77176 36902 ft 481 kts 242°
2026-05-07 21:20 22.71435 56.70806 36894 ft 481 kts 242°
2026-05-07 21:21 22.68337 56.64385 36896 ft 481 kts 242°
2026-05-07 21:21 22.65240 56.57966 36887 ft 481 kts 242°
2026-05-07 21:22 22.62139 56.51546 36872 ft 481 kts 242°
2026-05-07 21:22 22.59055 56.45170 36870 ft 481 kts 242°
2026-05-07 21:23 22.55947 56.38752 36867 ft 481 kts 242°
2026-05-07 21:23 22.53365 56.33424 36863 ft 481 kts 242°
2026-05-07 21:24 22.50254 56.27003 36857 ft 482 kts 242°
2026-05-07 21:24 22.46638 56.19551 36857 ft 482 kts 242°
2026-05-07 21:25 22.43526 56.13146 36860 ft 482 kts 242°
2026-05-07 21:25 22.40408 56.06738 36856 ft 482 kts 242°
2026-05-07 21:26 22.37814 56.01412 36855 ft 482 kts 242°
2026-05-07 21:26 22.34173 55.93983 36847 ft 481 kts 242°
2026-05-07 21:27 22.31032 55.87598 36840 ft 481 kts 242°
2026-05-07 21:27 22.28421 55.82290 36845 ft 481 kts 242°
2026-05-07 21:28 22.25282 55.75916 36837 ft 481 kts 241°
2026-05-07 21:28 22.22148 55.69529 36835 ft 481 kts 242°
2026-05-07 21:29 22.19033 55.63185 36830 ft 481 kts 242°
2026-05-07 21:29 22.16461 55.56520 36825 ft 483 kts 252°
2026-05-07 21:30 22.15114 55.49426 36827 ft 484 kts 263°
2026-05-07 21:30 22.14544 55.42184 36817 ft 485 kts 264°
2026-05-07 21:31 22.13951 55.34996 36819 ft 485 kts 263°
2026-05-07 21:31 22.13349 55.27747 36824 ft 485 kts 263°
2026-05-07 21:32 22.12746 55.20493 36823 ft 486 kts 263°
2026-05-07 21:32 22.12141 55.13237 36826 ft 486 kts 263°
2026-05-07 21:33 22.11536 55.06033 36823 ft 486 kts 263°
2026-05-07 21:33 22.10924 54.98776 36825 ft 486 kts 263°
2026-05-07 21:34 22.10309 54.91523 36819 ft 486 kts 263°
2026-05-07 21:34 22.09690 54.84274 36823 ft 485 kts 263°
2026-05-07 21:35 22.09073 54.77074 36820 ft 485 kts 263°
2026-05-07 21:35 22.08449 54.69827 36826 ft 485 kts 263°
2026-05-07 21:36 22.07823 54.62592 36823 ft 485 kts 263°
2026-05-07 21:36 22.07193 54.55356 36819 ft 484 kts 263°
2026-05-07 21:37 22.06564 54.48174 36815 ft 484 kts 263°
2026-05-07 21:37 22.05928 54.40948 36812 ft 484 kts 263°
2026-05-07 21:38 22.05291 54.33733 36814 ft 484 kts 263°
2026-05-07 21:38 22.04649 54.26506 36814 ft 484 kts 263°
2026-05-07 21:39 22.04008 54.19332 36812 ft 484 kts 263°
2026-05-07 21:39 22.03361 54.12116 36817 ft 484 kts 263°
2026-05-07 21:40 22.02709 54.04891 36815 ft 484 kts 263°
2026-05-07 21:40 22.02054 53.97663 36824 ft 485 kts 263°
2026-05-07 21:41 22.01401 53.90483 36821 ft 485 kts 263°
2026-05-07 21:41 22.00739 53.83258 36819 ft 484 kts 263°
2026-05-07 21:42 22.00075 53.76033 36815 ft 484 kts 263°
2026-05-07 21:42 21.99408 53.68811 36821 ft 484 kts 263°
2026-05-07 21:43 21.98743 53.61647 36812 ft 484 kts 263°
2026-05-07 21:43 21.98069 53.54431 36800 ft 484 kts 263°
2026-05-07 21:44 21.97393 53.47216 36801 ft 484 kts 262°
2026-05-07 21:44 21.96714 53.40008 36818 ft 483 kts 262°
2026-05-07 21:45 21.96032 53.32802 36814 ft 483 kts 262°
2026-05-07 21:45 21.95352 53.25653 36817 ft 483 kts 262°
2026-05-07 21:46 21.94664 53.18448 36799 ft 484 kts 262°
2026-05-07 21:46 21.93973 53.11242 36795 ft 484 kts 262°
2026-05-07 21:47 21.93278 53.04034 36797 ft 484 kts 262°
2026-05-07 21:47 21.92585 52.96883 36807 ft 484 kts 262°
2026-05-07 21:48 21.91884 52.89675 36817 ft 484 kts 262°
2026-05-07 21:48 21.91179 52.82464 36809 ft 484 kts 262°
2026-05-07 21:49 21.90487 52.75248 36794 ft 485 kts 264°
2026-05-07 21:49 21.90603 52.67981 36798 ft 488 kts 275°
2026-05-07 21:50 21.91785 52.60835 36798 ft 489 kts 279°
2026-05-07 21:50 21.93106 52.53653 36819 ft 489 kts 279°
2026-05-07 21:51 21.94420 52.46475 36817 ft 488 kts 279°
2026-05-07 21:51 21.95734 52.39307 36819 ft 487 kts 279°
2026-05-07 21:52 21.97033 52.32197 36801 ft 487 kts 279°
2026-05-07 21:52 21.98336 52.25045 36804 ft 486 kts 278°
2026-05-07 21:53 21.99634 52.17902 36805 ft 486 kts 278°
2026-05-07 21:53 22.00927 52.10764 36797 ft 485 kts 278°
2026-05-07 21:54 22.02209 52.03675 36795 ft 485 kts 278°
2026-05-07 21:54 22.03495 51.96541 36803 ft 485 kts 278°
2026-05-07 21:55 22.04776 51.89420 36803 ft 484 kts 278°
2026-05-07 21:55 22.06054 51.82295 36802 ft 484 kts 278°
2026-05-07 21:56 22.07328 51.75172 36800 ft 484 kts 278°
2026-05-07 21:56 22.08591 51.68095 36800 ft 484 kts 278°
2026-05-07 21:57 22.09859 51.60973 36802 ft 484 kts 278°
2026-05-07 21:57 22.11123 51.53848 36805 ft 484 kts 278°
2026-05-07 21:58 22.12384 51.46729 36807 ft 484 kts 278°
2026-05-07 21:58 22.13634 51.39649 36822 ft 483 kts 278°
2026-05-07 21:59 22.14888 51.32530 36819 ft 483 kts 278°
2026-05-07 21:59 22.16136 51.25424 36817 ft 482 kts 278°
2026-05-07 22:00 22.17380 51.18324 36816 ft 481 kts 278°
2026-05-07 22:00 22.18611 51.11281 36813 ft 481 kts 278°
2026-05-07 22:01 22.19846 51.04195 36806 ft 480 kts 278°
2026-05-07 22:01 22.21077 50.97112 36806 ft 480 kts 278°
2026-05-07 22:02 22.22305 50.90028 36807 ft 480 kts 278°
2026-05-07 22:02 22.23528 50.82955 36825 ft 480 kts 277°
2026-05-07 22:03 22.24748 50.75881 36821 ft 479 kts 277°
2026-05-07 22:03 22.25955 50.68859 36816 ft 479 kts 277°
2026-05-07 22:04 22.27166 50.61797 36816 ft 478 kts 277°
2026-05-07 22:04 22.28373 50.54740 36810 ft 478 kts 277°
2026-05-07 22:05 22.29569 50.47732 36811 ft 478 kts 277°
2026-05-07 22:05 22.30768 50.40682 36814 ft 477 kts 277°
2026-05-07 22:06 22.31964 50.33632 36817 ft 477 kts 277°
2026-05-07 22:06 22.33155 50.26594 36827 ft 476 kts 277°
2026-05-07 22:07 22.34342 50.19559 36822 ft 476 kts 277°
2026-05-07 22:07 22.35517 50.12581 36818 ft 475 kts 277°
2026-05-07 22:08 22.36694 50.05567 36816 ft 474 kts 277°
2026-05-07 22:08 22.37865 49.98565 36811 ft 473 kts 277°
2026-05-07 22:09 22.39034 49.91565 36805 ft 473 kts 277°
2026-05-07 22:09 22.40191 49.84612 36804 ft 473 kts 277°
2026-05-07 22:10 22.41353 49.77610 36805 ft 473 kts 277°
2026-05-07 22:10 22.42512 49.70611 36795 ft 474 kts 277°
2026-05-07 22:11 22.43670 49.63595 36808 ft 474 kts 276°
2026-05-07 22:11 22.44819 49.56613 36810 ft 475 kts 276°
2026-05-07 22:12 22.45972 49.49588 36812 ft 475 kts 276°
2026-05-07 22:12 22.47125 49.42547 36827 ft 476 kts 276°
2026-05-07 22:13 22.48275 49.35502 36822 ft 476 kts 276°
2026-05-07 22:13 22.49415 49.28501 36826 ft 476 kts 276°
2026-05-07 22:14 22.50559 49.21452 36835 ft 476 kts 276°
2026-05-07 22:14 22.51698 49.14417 36828 ft 475 kts 276°
2026-05-07 22:15 22.52832 49.07388 36809 ft 474 kts 276°
2026-05-07 22:15 22.53953 49.00424 36822 ft 473 kts 276°
2026-05-07 22:16 22.55076 48.93424 36811 ft 472 kts 276°
2026-05-07 22:16 22.56193 48.86444 36811 ft 471 kts 276°
2026-05-07 22:17 22.57307 48.79462 36811 ft 471 kts 276°
2026-05-07 22:17 22.58410 48.72526 36820 ft 471 kts 276°
2026-05-07 22:18 22.60069 48.62068 36839 ft 470 kts 275°
2026-05-07 22:19 22.61167 48.55112 36820 ft 469 kts 275°
2026-05-07 22:19 22.62256 48.48200 36826 ft 469 kts 275°
2026-05-07 22:20 22.63348 48.41246 36820 ft 469 kts 275°
2026-05-07 22:20 22.64437 48.34292 36810 ft 468 kts 275°
2026-05-07 22:21 22.65523 48.27336 36826 ft 469 kts 275°
2026-05-07 22:21 22.66606 48.20383 36839 ft 469 kts 275°
2026-05-07 22:22 22.67682 48.13470 36841 ft 468 kts 275°
2026-05-07 22:22 22.68762 48.06515 36835 ft 468 kts 275°
2026-05-07 22:23 22.69521 47.99549 36835 ft 464 kts 270°
2026-05-07 22:23 22.70101 47.92589 36838 ft 464 kts 271°
2026-05-07 22:24 22.70692 47.85671 36845 ft 464 kts 271°
2026-05-07 22:24 22.71274 47.78709 36837 ft 464 kts 270°
2026-05-07 22:25 22.71851 47.71746 36843 ft 464 kts 270°
2026-05-07 22:25 22.72423 47.64795 36855 ft 464 kts 270°
2026-05-07 22:26 22.72993 47.57839 36854 ft 463 kts 270°
2026-05-07 22:26 22.73556 47.50937 36862 ft 463 kts 270°
2026-05-07 22:27 22.74118 47.43995 36863 ft 462 kts 270°
2026-05-07 22:27 22.74677 47.37059 36864 ft 462 kts 270°
2026-05-07 22:28 22.75233 47.30129 36861 ft 462 kts 270°
2026-05-07 22:28 22.75781 47.23246 36868 ft 461 kts 270°
2026-05-07 22:29 22.76330 47.16326 36879 ft 461 kts 270°
2026-05-07 22:29 22.76882 47.09402 36880 ft 461 kts 270°
2026-05-07 22:30 22.77431 47.02482 36900 ft 460 kts 269°
2026-05-07 22:30 22.77975 46.95572 36902 ft 460 kts 269°
2026-05-07 22:31 22.78513 46.88703 36889 ft 460 kts 269°
2026-05-07 22:31 22.79051 46.81798 36894 ft 460 kts 269°
2026-05-07 22:32 22.79586 46.74890 36895 ft 460 kts 269°
2026-05-07 22:32 22.80114 46.68027 36896 ft 460 kts 269°
2026-05-07 22:33 22.80643 46.61117 36899 ft 460 kts 269°
2026-05-07 22:33 22.81170 46.54203 36910 ft 460 kts 269°
2026-05-07 22:34 22.81694 46.47282 36926 ft 461 kts 269°
2026-05-07 22:34 22.82214 46.40373 36933 ft 460 kts 269°
2026-05-07 22:35 22.82726 46.33511 36929 ft 460 kts 269°
2026-05-07 22:35 22.83236 46.26611 36906 ft 459 kts 269°
2026-05-07 22:36 22.83740 46.19731 36887 ft 457 kts 269°
2026-05-07 22:36 22.84243 46.12857 36883 ft 458 kts 269°
2026-05-07 22:37 22.84740 46.06038 36875 ft 457 kts 269°
2026-05-07 22:37 22.85237 45.99155 36872 ft 458 kts 269°
2026-05-07 22:38 22.85731 45.92263 36894 ft 459 kts 269°
2026-05-07 22:38 22.86221 45.85405 36898 ft 459 kts 269°
2026-05-07 22:39 22.86711 45.78496 36900 ft 460 kts 269°
2026-05-07 22:39 22.87198 45.71591 36903 ft 460 kts 268°
2026-05-07 22:40 22.87683 45.64678 36911 ft 460 kts 268°
2026-05-07 22:40 22.88164 45.57768 36919 ft 459 kts 268°
2026-05-07 22:41 22.88639 45.50906 36914 ft 459 kts 268°
2026-05-07 22:41 22.89114 45.44010 36927 ft 459 kts 268°
2026-05-07 22:42 22.89584 45.37115 36944 ft 458 kts 268°
2026-05-07 22:42 22.90053 45.30228 36939 ft 457 kts 268°
2026-05-07 22:43 22.90513 45.23401 36951 ft 456 kts 268°
2026-05-07 22:43 22.90973 45.16545 36947 ft 455 kts 268°
2026-05-07 22:44 22.91428 45.09707 36941 ft 454 kts 268°
2026-05-07 22:44 22.91880 45.02883 36942 ft 453 kts 268°
2026-05-07 22:45 22.92323 44.96116 36939 ft 453 kts 268°
2026-05-07 22:45 22.92766 44.89303 36936 ft 453 kts 268°
2026-05-07 22:46 22.93205 44.82499 36944 ft 452 kts 268°
2026-05-07 22:46 22.93644 44.75684 36948 ft 453 kts 268°
2026-05-07 22:47 22.94212 44.68905 36960 ft 458 kts 272°
2026-05-07 22:47 22.95708 44.62128 36960 ft 467 kts 281°
2026-05-07 22:48 22.97799 44.55446 36968 ft 468 kts 281°
2026-05-07 22:48 22.99845 44.48794 36974 ft 468 kts 281°
2026-05-07 22:49 23.01905 44.42094 36990 ft 468 kts 281°
2026-05-07 22:49 23.03964 44.35396 36986 ft 467 kts 281°
2026-05-07 22:50 23.06018 44.28705 36995 ft 467 kts 281°
2026-05-07 22:50 23.08051 44.22073 36993 ft 466 kts 281°
2026-05-07 22:51 23.10095 44.15394 36971 ft 466 kts 281°
2026-05-07 22:51 23.12132 44.08723 36970 ft 465 kts 281°
2026-05-07 22:52 23.14167 44.02051 36991 ft 465 kts 281°
2026-05-07 22:52 23.16196 43.95386 37006 ft 464 kts 280°
2026-05-07 22:53 23.18205 43.88774 36999 ft 463 kts 280°
2026-05-07 22:53 23.20222 43.82126 37011 ft 463 kts 280°
2026-05-07 22:54 23.22230 43.75495 37007 ft 461 kts 280°
2026-05-07 22:54 23.24228 43.68886 37002 ft 460 kts 280°
2026-05-07 22:55 23.26210 43.62322 37028 ft 460 kts 280°
2026-05-07 22:55 23.28199 43.55725 37025 ft 459 kts 280°
2026-05-07 22:56 23.30181 43.49137 37018 ft 458 kts 280°
2026-05-07 22:56 23.32157 43.42556 37041 ft 457 kts 280°
2026-05-07 22:57 23.34116 43.36025 37033 ft 456 kts 280°
2026-05-07 22:57 23.36081 43.29464 37028 ft 456 kts 280°
2026-05-07 22:58 23.38039 43.22910 37029 ft 455 kts 279°
2026-05-07 22:58 23.39992 43.16364 37027 ft 455 kts 279°
2026-05-07 22:59 23.41929 43.09855 37035 ft 455 kts 279°
2026-05-07 22:59 23.43874 43.03295 37053 ft 455 kts 279°
2026-05-07 23:00 23.45818 42.96729 37062 ft 455 kts 279°
2026-05-07 23:00 23.47758 42.90170 37066 ft 455 kts 279°
2026-05-07 23:01 23.49691 42.83620 37069 ft 454 kts 279°
2026-05-07 23:01 23.51604 42.77128 37042 ft 453 kts 279°
2026-05-07 23:02 23.53528 42.70593 37038 ft 453 kts 279°
2026-05-07 23:02 23.55452 42.64061 37035 ft 452 kts 279°
2026-05-07 23:03 23.57358 42.57574 37055 ft 452 kts 279°
2026-05-07 23:03 23.59272 42.51054 37045 ft 451 kts 279°
2026-05-07 23:04 23.61178 42.44546 37037 ft 450 kts 279°
2026-05-07 23:04 23.63076 42.38055 37056 ft 449 kts 279°
2026-05-07 23:05 23.64967 42.31576 37046 ft 448 kts 279°
2026-05-07 23:05 23.66836 42.25157 37031 ft 446 kts 279°
2026-05-07 23:06 23.68704 42.18711 37046 ft 445 kts 278°
2026-05-07 23:06 23.70565 42.12277 37034 ft 444 kts 278°
2026-05-07 23:07 23.72407 42.05902 37023 ft 443 kts 278°
2026-05-07 23:07 23.74256 41.99492 37017 ft 442 kts 278°
2026-05-07 23:08 23.76105 41.93088 37016 ft 442 kts 278°
2026-05-07 23:08 23.77955 41.86688 37014 ft 442 kts 278°
2026-05-07 23:09 23.79798 41.80293 37009 ft 442 kts 278°
2026-05-07 23:09 23.81630 41.73927 37010 ft 443 kts 278°
2026-05-07 23:10 23.83471 41.67510 37012 ft 443 kts 278°
2026-05-07 23:10 23.85310 41.61089 37014 ft 443 kts 278°
2026-05-07 23:11 23.87135 41.54708 37025 ft 443 kts 278°
2026-05-07 23:11 23.88960 41.48287 37022 ft 442 kts 278°
2026-05-07 23:12 23.90780 41.41868 37015 ft 442 kts 277°
2026-05-07 23:12 23.92595 41.35458 37013 ft 442 kts 277°
2026-05-07 23:13 23.94413 41.29047 37016 ft 441 kts 277°
2026-05-07 23:13 23.96228 41.22646 37008 ft 440 kts 277°
2026-05-07 23:14 23.98023 41.16298 36998 ft 439 kts 277°
2026-05-07 23:14 23.99823 41.09918 37001 ft 439 kts 277°
2026-05-07 23:15 24.01619 41.03546 36997 ft 438 kts 277°
2026-05-07 23:15 24.03397 40.97222 36985 ft 438 kts 277°
2026-05-07 23:16 24.05181 40.90867 36993 ft 437 kts 277°
2026-05-07 23:16 24.06965 40.84505 36987 ft 437 kts 277°
2026-05-07 23:17 24.08744 40.78149 36986 ft 437 kts 277°
2026-05-07 23:17 24.10506 40.71839 36976 ft 436 kts 277°
2026-05-07 23:18 24.12276 40.65493 36977 ft 436 kts 277°
2026-05-07 23:18 24.14043 40.59148 36969 ft 436 kts 277°
2026-05-07 23:19 24.15869 40.52820 36966 ft 440 kts 281°
2026-05-07 23:19 24.18461 40.46699 36981 ft 451 kts 287°
2026-05-07 23:20 24.21394 40.40628 36972 ft 450 kts 287°
2026-05-07 23:20 24.24301 40.34550 36966 ft 450 kts 287°
2026-05-07 23:21 24.27207 40.28473 36961 ft 450 kts 287°
2026-05-07 23:21 24.30110 40.22399 36964 ft 450 kts 287°
2026-05-07 23:22 24.32989 40.16367 36963 ft 449 kts 287°
2026-05-07 23:22 24.35881 40.10302 36959 ft 449 kts 287°
2026-05-07 23:23 24.38772 40.04232 36952 ft 449 kts 287°
2026-05-07 23:23 24.41660 39.98157 36952 ft 449 kts 287°
2026-05-07 23:24 24.44528 39.92117 36955 ft 449 kts 287°
2026-05-07 23:24 24.47414 39.86033 36973 ft 449 kts 287°
2026-05-07 23:25 24.50300 39.79940 37003 ft 450 kts 287°
2026-05-07 23:25 24.53390 39.73914 36957 ft 462 kts 294°
2026-05-07 23:26 24.57648 39.68501 36960 ft 482 kts 306°
2026-05-07 23:26 24.60254 39.66118 36967 ft 493 kts 313°
2026-05-07 23:26 24.63045 39.63920 36958 ft 495 kts 313°
2026-05-07 23:27 24.71399 39.57251 36983 ft 495 kts 313°
2026-05-07 23:27 24.76973 39.52786 36963 ft 496 kts 313°
2026-05-07 23:28 24.82515 39.48350 36960 ft 496 kts 313°
2026-05-07 23:28 24.88094 39.43880 36955 ft 496 kts 313°
2026-05-07 23:29 24.93666 39.39407 36951 ft 496 kts 313°
2026-05-07 23:29 24.99239 39.34928 36985 ft 496 kts 313°
2026-05-07 23:30 25.04787 39.30463 36956 ft 497 kts 313°
2026-05-07 23:30 25.10374 39.25965 36962 ft 498 kts 313°
2026-05-07 23:31 25.15970 39.21454 36966 ft 498 kts 313°
2026-05-07 23:31 25.21183 39.16576 36958 ft 484 kts 304°
2026-05-07 23:32 25.25384 39.10967 36966 ft 471 kts 295°
2026-05-07 23:32 25.28924 39.04923 36966 ft 469 kts 293°
2026-05-07 23:33 25.32476 38.98884 36936 ft 469 kts 293°
2026-05-07 23:33 25.36019 38.92837 36923 ft 469 kts 293°
2026-05-07 23:34 25.39529 38.86821 36935 ft 469 kts 294°
2026-05-07 23:34 25.43057 38.80766 36930 ft 469 kts 294°
2026-05-07 23:35 25.46584 38.74706 36915 ft 468 kts 294°
2026-05-07 23:35 25.50107 38.68645 36919 ft 468 kts 294°
2026-05-07 23:36 25.53627 38.62580 36903 ft 469 kts 294°
2026-05-07 23:36 25.57126 38.56544 36908 ft 469 kts 294°
2026-05-07 23:37 25.60648 38.50461 36912 ft 469 kts 294°
2026-05-07 23:37 25.64166 38.44377 36908 ft 469 kts 294°
2026-05-07 23:38 25.67684 38.38284 36908 ft 469 kts 294°
2026-05-07 23:38 25.71185 38.32211 36894 ft 471 kts 294°
2026-05-07 23:39 25.74716 38.26082 36898 ft 472 kts 294°
2026-05-07 23:39 25.78246 38.19946 36903 ft 473 kts 294°
2026-05-07 23:40 25.81783 38.13785 36868 ft 474 kts 295°
2026-05-07 23:40 25.85303 38.07653 36903 ft 475 kts 295°
2026-05-07 23:41 25.88851 38.01460 36911 ft 475 kts 295°
2026-05-07 23:41 25.92396 37.95264 36956 ft 476 kts 295°
2026-05-07 23:42 25.95947 37.89047 36937 ft 477 kts 296°
2026-05-07 23:42 25.99125 37.82656 36935 ft 468 kts 287°
2026-05-07 23:43 26.01104 37.75903 36943 ft 459 kts 277°
2026-05-07 23:43 26.02117 37.68944 36954 ft 456 kts 274°
2026-05-07 23:44 26.03075 37.61979 36939 ft 455 kts 274°
2026-05-07 23:44 26.04025 37.55024 36937 ft 455 kts 274°
2026-05-07 23:45 26.04954 37.48132 36936 ft 454 kts 274°
2026-05-07 23:45 26.05884 37.41177 36912 ft 455 kts 275°
2026-05-07 23:46 26.06816 37.34207 36922 ft 456 kts 275°
2026-05-07 23:46 26.07745 37.27229 36917 ft 456 kts 275°
2026-05-07 23:47 26.08663 37.20290 36891 ft 457 kts 275°
2026-05-07 23:47 26.09587 37.13288 36897 ft 458 kts 275°
2026-05-07 23:48 26.10511 37.06274 36898 ft 458 kts 275°
2026-05-07 23:48 26.11431 36.99257 36900 ft 459 kts 275°
2026-05-07 23:49 26.12342 36.92262 36881 ft 460 kts 276°
2026-05-07 23:49 26.13260 36.85217 36906 ft 459 kts 276°
2026-05-07 23:50 26.14171 36.78186 36901 ft 459 kts 276°
2026-05-07 23:50 26.15075 36.71163 36866 ft 459 kts 276°
2026-05-07 23:51 26.15971 36.64189 36869 ft 459 kts 276°
2026-05-07 23:51 26.16872 36.57161 36869 ft 459 kts 276°
2026-05-07 23:52 26.18533 36.50307 36882 ft 463 kts 291°
2026-05-07 23:52 26.21936 36.44260 36883 ft 468 kts 308°
2026-05-07 23:53 26.26468 36.39021 36883 ft 470 kts 311°
2026-05-07 23:53 26.31011 36.33774 36874 ft 471 kts 311°
2026-05-07 23:54 26.35568 36.28509 36869 ft 472 kts 311°
2026-05-07 23:54 26.40100 36.23272 36880 ft 472 kts 312°
2026-05-07 23:55 26.44659 36.17998 36884 ft 472 kts 312°
2026-05-07 23:55 26.49209 36.12731 36880 ft 471 kts 312°
2026-05-07 23:56 26.53756 36.07459 36875 ft 471 kts 312°
2026-05-07 23:56 26.58293 36.02191 36873 ft 470 kts 311°
2026-05-07 23:57 26.62793 35.96962 36870 ft 469 kts 311°
2026-05-07 23:57 26.67316 35.91698 36849 ft 470 kts 312°
2026-05-07 23:58 26.71839 35.86427 36874 ft 470 kts 312°
2026-05-07 23:58 26.76332 35.81186 36878 ft 470 kts 312°
2026-05-07 23:59 26.80850 35.75910 36876 ft 470 kts 312°
2026-05-07 23:59 26.85368 35.70626 36884 ft 469 kts 312°
2026-05-08 00:00 26.89881 35.65343 36884 ft 469 kts 312°
2026-05-08 00:00 26.94385 35.60065 36880 ft 468 kts 312°
2026-05-08 00:01 26.98846 35.54830 36879 ft 468 kts 312°
2026-05-08 00:01 27.03339 35.49550 36912 ft 467 kts 312°
2026-05-08 00:02 27.07816 35.44282 36884 ft 467 kts 313°
2026-05-08 00:02 27.12291 35.39012 36878 ft 466 kts 313°
2026-05-08 00:03 27.16729 35.33779 36880 ft 465 kts 313°
2026-05-08 00:03 27.21191 35.28511 36875 ft 465 kts 313°
2026-05-08 00:04 27.25647 35.23242 36881 ft 464 kts 313°
2026-05-08 00:04 27.30092 35.17980 36878 ft 464 kts 313°
2026-05-08 00:05 27.34493 35.12764 36887 ft 463 kts 313°
2026-05-08 00:05 27.38921 35.07509 36884 ft 462 kts 313°
2026-05-08 00:06 27.43345 35.02252 36882 ft 463 kts 313°
2026-05-08 00:06 27.47769 34.96989 36895 ft 462 kts 313°
2026-05-08 00:07 27.52197 34.91817 36894 ft 461 kts 316°
2026-05-08 00:07 27.56892 34.86893 36890 ft 461 kts 316°
2026-05-08 00:08 27.61562 34.81958 36896 ft 460 kts 316°
2026-05-08 00:08 27.66232 34.77015 36892 ft 460 kts 316°
2026-05-08 00:09 27.70868 34.72103 36903 ft 460 kts 316°
2026-05-08 00:09 27.75523 34.67166 36917 ft 459 kts 316°
2026-05-08 00:10 27.80171 34.62231 36922 ft 459 kts 316°
2026-05-08 00:10 27.84815 34.57294 36927 ft 458 kts 316°
2026-05-08 00:11 27.89415 34.52398 36931 ft 457 kts 316°
2026-05-08 00:11 27.94045 34.47464 36929 ft 457 kts 316°
2026-05-08 00:12 27.98664 34.42533 36944 ft 456 kts 315°
2026-05-08 00:12 28.02838 34.37134 36936 ft 456 kts 310°
2026-05-08 00:13 28.06826 34.31617 36933 ft 456 kts 310°
2026-05-08 00:13 28.10845 34.26069 36935 ft 455 kts 310°
2026-05-08 00:14 28.14855 34.20515 36968 ft 455 kts 310°
2026-05-08 00:14 28.18847 34.14974 36986 ft 453 kts 310°
2026-05-08 00:15 28.22799 34.09481 36993 ft 452 kts 310°
2026-05-08 00:15 28.26763 34.03965 36982 ft 450 kts 310°
2026-05-08 00:16 28.30716 33.98455 36985 ft 450 kts 310°
2026-05-08 00:16 28.34656 33.92956 36993 ft 447 kts 311°
2026-05-08 00:17 28.38543 33.87526 36990 ft 446 kts 311°
2026-05-08 00:17 28.42446 33.82068 36990 ft 444 kts 311°
2026-05-08 00:18 28.46341 33.76614 36972 ft 444 kts 311°
2026-05-08 00:18 28.50236 33.71152 36965 ft 445 kts 311°
2026-05-08 00:19 28.54107 33.65715 37018 ft 444 kts 311°
2026-05-08 00:19 28.57999 33.60256 37011 ft 444 kts 311°
2026-05-08 00:20 28.61877 33.54814 37015 ft 442 kts 311°
2026-05-08 00:20 28.65741 33.49379 36999 ft 441 kts 311°
2026-05-08 00:21 28.69561 33.43986 36991 ft 439 kts 311°
2026-05-08 00:21 28.73391 33.38574 36991 ft 438 kts 311°
2026-05-08 00:22 28.77206 33.33178 36983 ft 437 kts 311°
2026-05-08 00:22 28.81015 33.27785 36983 ft 436 kts 311°
2026-05-08 00:23 28.84794 33.22425 36987 ft 437 kts 311°
2026-05-08 00:23 28.88598 33.17024 36994 ft 437 kts 311°
2026-05-08 00:24 28.92398 33.11619 37039 ft 436 kts 312°
2026-05-08 00:24 28.96191 33.06220 37030 ft 436 kts 312°
2026-05-08 00:25 28.99954 33.00857 37033 ft 435 kts 312°
2026-05-08 00:25 29.03737 32.95458 37041 ft 435 kts 312°
2026-05-08 00:26 29.07514 32.90059 37043 ft 435 kts 312°
2026-05-08 00:26 29.11275 32.84674 37083 ft 432 kts 313°
2026-05-08 00:27 29.15014 32.79317 37073 ft 430 kts 313°
2026-05-08 00:27 29.18707 32.74020 37041 ft 428 kts 313°
2026-05-08 00:28 29.22410 32.68699 37051 ft 426 kts 313°
2026-05-08 00:28 29.26100 32.63392 37042 ft 425 kts 313°
2026-05-08 00:29 29.29770 32.58098 37081 ft 423 kts 313°
2026-05-08 00:29 29.33380 32.52840 37078 ft 422 kts 313°
2026-05-08 00:30 29.36996 32.47565 37089 ft 421 kts 313°
2026-05-08 00:30 29.40607 32.42296 37062 ft 419 kts 313°
2026-05-08 00:31 29.44205 32.37040 37062 ft 418 kts 313°
2026-05-08 00:31 29.47765 32.31831 37084 ft 417 kts 314°
2026-05-08 00:32 29.51336 32.26601 37086 ft 416 kts 314°
2026-05-08 00:32 29.54899 32.21377 37068 ft 416 kts 314°
2026-05-08 00:33 29.58462 32.16146 37069 ft 416 kts 314°
2026-05-08 00:33 29.61991 32.10957 37068 ft 415 kts 314°
2026-05-08 00:34 29.65544 32.05727 37083 ft 414 kts 314°
2026-05-08 00:34 29.69089 32.00501 37082 ft 414 kts 314°
2026-05-08 00:35 29.72633 31.95272 37085 ft 414 kts 314°
2026-05-08 00:35 29.76152 31.90072 37101 ft 415 kts 314°
2026-05-08 00:36 29.79680 31.84824 37098 ft 415 kts 313°
2026-05-08 00:36 29.83102 31.79468 37071 ft 415 kts 312°
2026-05-08 00:37 29.86514 31.74110 37084 ft 415 kts 312°
2026-05-08 00:38 29.91628 31.66116 37085 ft 415 kts 312°
2026-05-08 00:38 29.95073 31.60781 37090 ft 415 kts 313°
2026-05-08 00:39 29.98533 31.55441 37076 ft 416 kts 313°
2026-05-08 00:39 30.01993 31.50089 37063 ft 416 kts 312°
2026-05-08 00:40 30.05433 31.44753 37065 ft 418 kts 312°
2026-05-08 00:40 30.08976 31.39449 37068 ft 416 kts 316°
2026-05-08 00:41 30.12338 31.35519 37083 ft 412 kts 321°
2026-05-08 00:41 30.16559 31.31012 37088 ft 414 kts 321°
2026-05-08 00:42 30.21449 31.25742 37096 ft 414 kts 321°
2026-05-08 00:42 30.25659 31.21211 37109 ft 413 kts 321°
2026-05-08 00:43 30.29155 31.17446 37119 ft 413 kts 320°
2026-05-08 00:43 30.33363 31.12908 37120 ft 413 kts 320°
2026-05-08 00:44 30.37571 31.08366 37122 ft 414 kts 320°
2026-05-08 00:44 30.42460 31.03082 37124 ft 414 kts 320°
2026-05-08 00:45 30.45958 30.99296 37117 ft 414 kts 320°
2026-05-08 00:45 30.50164 30.94740 37120 ft 414 kts 320°
2026-05-08 00:46 30.55052 30.89437 37121 ft 414 kts 320°
2026-05-08 00:46 30.58579 30.85605 37123 ft 414 kts 320°
2026-05-08 00:47 30.62755 30.81064 37131 ft 415 kts 320°
2026-05-08 00:47 30.66963 30.76481 37131 ft 415 kts 320°
2026-05-08 00:48 30.71173 30.71892 37127 ft 415 kts 320°
2026-05-08 00:48 30.75381 30.67298 37134 ft 415 kts 320°
2026-05-08 00:49 30.79560 30.62731 37132 ft 415 kts 320°
2026-05-08 00:49 30.83759 30.58135 37133 ft 415 kts 320°
2026-05-08 00:50 30.87963 30.53530 37123 ft 415 kts 320°
2026-05-08 00:50 30.92165 30.48920 37127 ft 415 kts 320°
2026-05-08 00:51 30.96365 30.44306 37131 ft 415 kts 320°
2026-05-08 00:51 31.00537 30.39717 37108 ft 415 kts 320°
2026-05-08 00:52 31.04731 30.35089 37121 ft 415 kts 318°
2026-05-08 00:52 31.08368 30.29797 37125 ft 423 kts 307°
2026-05-08 00:53 31.10981 30.23582 37127 ft 433 kts 296°
2026-05-08 00:53 31.12800 30.16912 37130 ft 435 kts 294°
2026-05-08 00:54 31.14648 30.10187 37123 ft 435 kts 294°
2026-05-08 00:54 31.16484 30.03458 37143 ft 435 kts 294°
2026-05-08 00:55 31.18552 29.96927 37137 ft 429 kts 301°
2026-05-08 00:55 31.21428 29.90892 37132 ft 423 kts 308°
2026-05-08 00:56 31.24860 29.85347 37128 ft 421 kts 310°
2026-05-08 00:56 31.28303 29.79817 37134 ft 421 kts 310°
2026-05-08 00:57 31.31721 29.74322 37134 ft 420 kts 310°
2026-05-08 00:57 31.35161 29.68791 37137 ft 420 kts 310°
2026-05-08 00:58 31.38599 29.63257 37136 ft 420 kts 310°
2026-05-08 00:58 31.42031 29.57727 37138 ft 420 kts 310°
2026-05-08 00:59 31.45465 29.52186 37129 ft 420 kts 310°
2026-05-08 00:59 31.48875 29.46674 37131 ft 421 kts 310°
2026-05-08 01:00 31.52309 29.41116 37135 ft 421 kts 310°
2026-05-08 01:00 31.55745 29.35547 37145 ft 422 kts 310°
2026-05-08 01:01 31.59159 29.30005 37146 ft 422 kts 310°
2026-05-08 01:01 31.62591 29.24410 37128 ft 423 kts 309°
2026-05-08 01:02 31.66019 29.18812 37133 ft 423 kts 309°
2026-05-08 01:02 31.69453 29.13197 37152 ft 423 kts 309°
2026-05-08 01:03 31.72884 29.07579 37154 ft 423 kts 309°
2026-05-08 01:03 31.76287 29.01998 37148 ft 423 kts 309°
2026-05-08 01:04 31.79709 28.96383 37143 ft 422 kts 309°
2026-05-08 01:04 31.83123 28.90774 37133 ft 422 kts 309°
2026-05-08 01:05 31.86511 28.85198 37135 ft 422 kts 309°
2026-05-08 01:05 31.89919 28.79580 37133 ft 422 kts 309°
2026-05-08 01:06 31.93326 28.73956 37135 ft 422 kts 309°
2026-05-08 01:06 31.96729 28.68331 37139 ft 422 kts 309°
2026-05-08 01:07 32.00112 28.62730 37132 ft 422 kts 309°
2026-05-08 01:07 32.03517 28.57084 37139 ft 423 kts 309°
2026-05-08 01:08 32.06923 28.51428 37142 ft 423 kts 309°
2026-05-08 01:08 32.10329 28.45762 37157 ft 424 kts 309°
2026-05-08 01:09 32.13711 28.40131 37154 ft 423 kts 309°
2026-05-08 01:09 32.17106 28.34469 37145 ft 423 kts 308°
2026-05-08 01:10 32.20497 28.28804 37146 ft 422 kts 308°
2026-05-08 01:10 32.23883 28.23140 37143 ft 422 kts 308°
2026-05-08 01:11 32.27242 28.17512 37139 ft 422 kts 308°
2026-05-08 01:11 32.30619 28.11845 37140 ft 422 kts 308°
2026-05-08 01:12 32.33994 28.06174 37134 ft 422 kts 308°
2026-05-08 01:12 32.37360 28.00510 37147 ft 421 kts 308°
2026-05-08 01:13 32.40704 27.94873 37141 ft 421 kts 308°
2026-05-08 01:13 32.44067 27.89197 37143 ft 421 kts 308°
2026-05-08 01:14 32.47427 27.83517 37145 ft 421 kts 308°
2026-05-08 01:14 32.50783 27.77835 37155 ft 421 kts 308°
2026-05-08 01:15 32.54115 27.72185 37163 ft 421 kts 308°
2026-05-08 01:15 32.57461 27.66503 37155 ft 421 kts 308°
2026-05-08 01:16 32.60806 27.60814 37147 ft 420 kts 308°
2026-05-08 01:16 32.64146 27.55125 37146 ft 420 kts 308°
2026-05-08 01:17 32.67460 27.49472 37143 ft 420 kts 308°
2026-05-08 01:17 32.70793 27.43782 37151 ft 419 kts 308°
2026-05-08 01:18 32.74113 27.38092 37153 ft 419 kts 308°
2026-05-08 01:18 32.77420 27.32404 37148 ft 419 kts 308°
2026-05-08 01:19 32.80707 27.26747 37146 ft 419 kts 308°
2026-05-08 01:19 32.84014 27.21048 37150 ft 419 kts 307°
2026-05-08 01:20 32.87318 27.15347 37148 ft 418 kts 307°
2026-05-08 01:20 32.90616 27.09647 37142 ft 418 kts 307°
2026-05-08 01:21 32.93887 27.03984 37142 ft 418 kts 307°
2026-05-08 01:21 32.97178 26.98279 37148 ft 418 kts 307°
2026-05-08 01:22 33.00457 26.92575 37145 ft 418 kts 307°
2026-05-08 01:22 33.03735 26.86859 37136 ft 418 kts 307°
2026-05-08 01:23 33.06991 26.81178 37155 ft 418 kts 307°
2026-05-08 01:23 33.10268 26.75450 37162 ft 418 kts 307°
2026-05-08 01:24 33.13545 26.69713 37166 ft 418 kts 307°
2026-05-08 01:24 33.16821 26.63968 37160 ft 419 kts 307°
2026-05-08 01:25 33.20074 26.58254 37138 ft 419 kts 307°
2026-05-08 01:25 33.23346 26.52501 37149 ft 419 kts 306°
2026-05-08 01:26 33.26620 26.46731 37150 ft 420 kts 306°
2026-05-08 01:26 33.29895 26.40952 37140 ft 420 kts 306°
2026-05-08 01:27 33.33146 26.35207 37158 ft 420 kts 306°
2026-05-08 01:27 33.36414 26.29423 37141 ft 419 kts 306°
2026-05-08 01:28 33.39676 26.23639 37129 ft 419 kts 306°
2026-05-08 01:28 33.42935 26.17854 37150 ft 419 kts 306°
2026-05-08 01:29 33.46167 26.12106 37155 ft 419 kts 306°
2026-05-08 01:29 33.49424 26.06305 37150 ft 420 kts 306°
2026-05-08 01:30 33.52680 26.00495 37148 ft 420 kts 306°
2026-05-08 01:30 33.55935 25.94679 37139 ft 420 kts 306°
2026-05-08 01:31 33.59169 25.88891 37139 ft 421 kts 305°
2026-05-08 01:31 33.62427 25.83051 37141 ft 421 kts 305°
2026-05-08 01:32 33.65688 25.77197 37146 ft 422 kts 305°
2026-05-08 01:32 33.68946 25.71337 37147 ft 423 kts 305°
2026-05-08 01:33 33.72187 25.65500 37158 ft 423 kts 305°
2026-05-08 01:33 33.75446 25.59621 37137 ft 423 kts 305°
2026-05-08 01:34 33.78707 25.53727 37140 ft 424 kts 305°
2026-05-08 01:34 33.81969 25.47824 37139 ft 424 kts 305°
2026-05-08 01:35 33.85208 25.41952 37142 ft 424 kts 305°
2026-05-08 01:35 33.88466 25.36034 37139 ft 424 kts 304°
2026-05-08 01:36 33.91723 25.30112 37137 ft 424 kts 304°
2026-05-08 01:36 33.94977 25.24185 37137 ft 424 kts 304°
2026-05-08 01:37 33.98181 25.18283 37134 ft 424 kts 302°
2026-05-08 01:37 34.00863 25.11946 37133 ft 426 kts 295°
2026-05-08 01:38 34.02921 25.05236 37131 ft 427 kts 292°
2026-05-08 01:38 34.04957 24.98512 37140 ft 426 kts 292°
2026-05-08 01:39 34.06964 24.91846 37140 ft 426 kts 292°
2026-05-08 01:39 34.08973 24.85133 37135 ft 425 kts 292°
2026-05-08 01:40 34.10974 24.78425 37129 ft 425 kts 292°
2026-05-08 01:40 34.12967 24.71728 37129 ft 424 kts 292°
2026-05-08 01:41 34.14945 24.65068 37126 ft 424 kts 292°
2026-05-08 01:41 34.16933 24.58361 37122 ft 424 kts 291°
2026-05-08 01:42 34.18917 24.51650 37118 ft 424 kts 291°
2026-05-08 01:42 34.20898 24.44932 37121 ft 425 kts 292°
2026-05-08 01:43 34.22864 24.38252 37117 ft 425 kts 292°
2026-05-08 01:43 34.24840 24.31525 37122 ft 425 kts 291°
2026-05-08 01:44 34.26808 24.24803 37118 ft 425 kts 291°
2026-05-08 01:44 34.28775 24.18073 37118 ft 424 kts 291°
2026-05-08 01:45 34.30737 24.11342 37111 ft 424 kts 291°
2026-05-08 01:45 34.32683 24.04653 37110 ft 424 kts 291°
2026-05-08 01:46 34.34636 23.97924 37108 ft 424 kts 291°
2026-05-08 01:46 34.36584 23.91192 37108 ft 424 kts 291°
2026-05-08 01:47 34.38527 23.84466 37098 ft 424 kts 291°
2026-05-08 01:47 34.40455 23.77774 37098 ft 424 kts 291°
2026-05-08 01:48 34.43360 23.67665 37089 ft 424 kts 290°
2026-05-08 01:48 34.45293 23.60914 37087 ft 424 kts 290°
2026-05-08 01:49 34.47224 23.54156 37086 ft 424 kts 290°
2026-05-08 01:49 34.49139 23.47438 37079 ft 425 kts 290°
2026-05-08 01:50 34.51065 23.40669 37068 ft 425 kts 290°
2026-05-08 01:50 34.52989 23.33887 37066 ft 426 kts 290°
2026-05-08 01:51 34.54911 23.27093 37067 ft 426 kts 290°
2026-05-08 01:51 34.56818 23.20341 37063 ft 427 kts 290°
2026-05-08 01:52 34.58737 23.13526 37068 ft 427 kts 290°
2026-05-08 01:52 34.60654 23.06705 37047 ft 427 kts 290°
2026-05-08 01:53 34.62495 22.99845 37051 ft 428 kts 286°
2026-05-08 01:53 34.63751 22.92816 37051 ft 429 kts 283°
2026-05-08 01:54 34.64963 22.85714 37053 ft 430 kts 283°
2026-05-08 01:54 34.66188 22.78610 37054 ft 430 kts 283°
2026-05-08 01:55 34.67410 22.71503 37054 ft 430 kts 283°
2026-05-08 01:55 34.68614 22.64454 37052 ft 429 kts 283°
2026-05-08 01:56 34.69823 22.57353 37044 ft 429 kts 283°
2026-05-08 01:56 34.71026 22.50260 37041 ft 428 kts 283°
2026-05-08 01:57 34.72225 22.43172 37039 ft 428 kts 283°
2026-05-08 01:57 34.73415 22.36097 37036 ft 427 kts 282°
2026-05-08 01:58 34.74592 22.29061 37035 ft 427 kts 282°
2026-05-08 01:58 34.75771 22.21980 37035 ft 427 kts 282°
2026-05-08 01:59 34.76947 22.14896 37032 ft 427 kts 282°
2026-05-08 01:59 34.78119 22.07809 37033 ft 427 kts 282°
2026-05-08 02:00 34.79277 22.00775 37037 ft 427 kts 282°
2026-05-08 02:00 34.80440 21.93681 37039 ft 428 kts 282°
2026-05-08 02:01 34.81601 21.86581 37036 ft 428 kts 282°
2026-05-08 02:01 34.82757 21.79477 37033 ft 428 kts 282°
2026-05-08 02:02 34.83903 21.72415 37029 ft 428 kts 282°
2026-05-08 02:02 34.85052 21.65303 37032 ft 428 kts 282°
2026-05-08 02:03 34.86197 21.58185 37032 ft 428 kts 282°
2026-05-08 02:03 34.87338 21.51066 37030 ft 428 kts 282°
2026-05-08 02:04 34.88475 21.43941 37031 ft 428 kts 281°
2026-05-08 02:04 34.89600 21.36870 37031 ft 428 kts 281°
2026-05-08 02:05 34.90729 21.29743 37030 ft 428 kts 281°
2026-05-08 02:05 34.91854 21.22614 37027 ft 428 kts 281°
2026-05-08 02:06 34.92974 21.15485 37027 ft 428 kts 281°
2026-05-08 02:06 34.94083 21.08405 37029 ft 428 kts 281°
2026-05-08 02:07 34.95193 21.01284 37025 ft 427 kts 281°
2026-05-08 02:07 34.96296 20.94178 37020 ft 427 kts 281°
2026-05-08 02:08 34.97396 20.87071 37014 ft 426 kts 281°
2026-05-08 02:08 34.98483 20.80014 37017 ft 426 kts 281°
2026-05-08 02:09 34.99572 20.72916 37015 ft 426 kts 281°
2026-05-08 02:09 35.00656 20.65819 37013 ft 425 kts 281°
2026-05-08 02:10 35.01728 20.58773 37005 ft 425 kts 281°
2026-05-08 02:10 35.02803 20.51680 37006 ft 425 kts 281°
2026-05-08 02:11 35.03875 20.44585 37009 ft 425 kts 281°
2026-05-08 02:11 35.04941 20.37492 37009 ft 425 kts 280°
2026-05-08 02:12 35.05993 20.30459 37003 ft 424 kts 280°
2026-05-08 02:12 35.07049 20.23376 37001 ft 424 kts 280°
2026-05-08 02:13 35.08101 20.16294 36993 ft 424 kts 280°
2026-05-08 02:13 35.09148 20.09212 36997 ft 424 kts 280°
2026-05-08 02:14 35.10190 20.02131 36992 ft 424 kts 280°
2026-05-08 02:14 35.11221 19.95102 36992 ft 423 kts 280°
2026-05-08 02:15 35.12254 19.88020 36992 ft 423 kts 280°
2026-05-08 02:15 35.13284 19.80936 36993 ft 423 kts 280°
2026-05-08 02:16 35.14303 19.73906 36991 ft 423 kts 279°
2026-05-08 02:16 35.15324 19.66818 36989 ft 423 kts 279°
2026-05-08 02:17 35.16341 19.59729 36992 ft 423 kts 279°
2026-05-08 02:17 35.17354 19.52638 36990 ft 423 kts 279°
2026-05-08 02:18 35.18363 19.45546 36994 ft 423 kts 279°
2026-05-08 02:18 35.19362 19.38506 36993 ft 423 kts 278°
2026-05-08 02:19 35.20358 19.31435 36991 ft 422 kts 278°
2026-05-08 02:19 35.21350 19.24372 36991 ft 422 kts 278°
2026-05-08 02:20 35.22339 19.17299 36995 ft 421 kts 278°
2026-05-08 02:20 35.23315 19.10286 37001 ft 421 kts 278°
2026-05-08 02:21 35.24294 19.03230 36984 ft 420 kts 278°
2026-05-08 02:21 35.25266 18.96181 36982 ft 420 kts 278°
2026-05-08 02:22 35.26233 18.89140 36984 ft 420 kts 278°
2026-05-08 02:22 35.27197 18.82088 36982 ft 420 kts 278°
2026-05-08 02:23 35.28151 18.75083 36982 ft 420 kts 277°
2026-05-08 02:23 35.29106 18.68037 36981 ft 420 kts 277°
2026-05-08 02:24 35.30057 18.60987 36978 ft 420 kts 277°
2026-05-08 02:24 35.31004 18.53936 36971 ft 420 kts 277°
2026-05-08 02:25 35.31941 18.46931 36971 ft 420 kts 277°
2026-05-08 02:25 35.32880 18.39877 36985 ft 420 kts 277°
2026-05-08 02:26 35.33814 18.32832 36986 ft 419 kts 277°
2026-05-08 02:26 35.34741 18.25796 36984 ft 418 kts 277°
2026-05-08 02:27 35.35656 18.18823 36980 ft 418 kts 277°
2026-05-08 02:27 35.36574 18.11801 36968 ft 417 kts 277°
2026-05-08 02:28 35.37486 18.04784 36968 ft 417 kts 277°
2026-05-08 02:28 35.38394 17.97767 36968 ft 417 kts 277°
2026-05-08 02:29 35.39292 17.90796 36955 ft 417 kts 277°
2026-05-08 02:29 35.40193 17.83771 36965 ft 417 kts 277°
2026-05-08 02:30 35.41090 17.76741 36971 ft 418 kts 277°
2026-05-08 02:30 35.41987 17.69688 36989 ft 419 kts 276°
2026-05-08 02:31 35.42873 17.62681 36991 ft 419 kts 276°
2026-05-08 02:31 35.43760 17.55627 36988 ft 418 kts 276°
2026-05-08 02:32 35.44641 17.48587 36979 ft 418 kts 276°
2026-05-08 02:32 35.45518 17.41547 36973 ft 417 kts 276°
2026-05-08 02:33 35.46385 17.34559 36986 ft 417 kts 276°
2026-05-08 02:33 35.47251 17.27535 36974 ft 416 kts 276°
2026-05-08 02:34 35.48112 17.20524 36964 ft 415 kts 276°
2026-05-08 02:34 35.48967 17.13522 36958 ft 415 kts 276°
2026-05-08 02:35 35.49812 17.06573 36958 ft 414 kts 276°
2026-05-08 02:35 35.50657 16.99590 36960 ft 414 kts 275°
2026-05-08 02:36 35.51498 16.92605 36960 ft 414 kts 275°
2026-05-08 02:36 35.52334 16.85623 36953 ft 413 kts 275°
2026-05-08 02:37 35.53166 16.78641 36954 ft 413 kts 275°
2026-05-08 02:37 35.53987 16.71715 36951 ft 413 kts 275°
2026-05-08 02:38 35.54811 16.64734 36965 ft 413 kts 275°
2026-05-08 02:38 35.55629 16.57756 36958 ft 413 kts 275°
2026-05-08 02:39 35.56443 16.50785 36955 ft 412 kts 275°
2026-05-08 02:39 35.57247 16.43865 36953 ft 412 kts 275°
2026-05-08 02:40 35.58052 16.36901 36951 ft 412 kts 275°
2026-05-08 02:40 35.58853 16.29939 36957 ft 411 kts 275°
2026-05-08 02:41 35.59648 16.22981 36951 ft 411 kts 275°
2026-05-08 02:41 35.60433 16.16082 36949 ft 411 kts 275°
2026-05-08 02:42 35.61219 16.09135 36943 ft 410 kts 275°
2026-05-08 02:42 35.62001 16.02189 36937 ft 410 kts 275°
2026-05-08 02:43 35.62780 15.95242 36945 ft 410 kts 274°
2026-05-08 02:43 35.63548 15.88347 36941 ft 410 kts 274°
2026-05-08 02:44 35.64316 15.81413 36936 ft 409 kts 274°
2026-05-08 02:44 35.65080 15.74484 36929 ft 409 kts 274°
2026-05-08 02:45 35.65838 15.67566 36933 ft 409 kts 274°
2026-05-08 02:45 35.66588 15.60688 36947 ft 408 kts 274°
2026-05-08 02:46 35.67338 15.53772 36939 ft 407 kts 274°
2026-05-08 02:46 35.68082 15.46870 36931 ft 407 kts 274°
2026-05-08 02:47 35.68821 15.39980 36923 ft 406 kts 274°
2026-05-08 02:47 35.69555 15.33102 36929 ft 406 kts 274°
2026-05-08 02:48 35.70280 15.26268 36928 ft 406 kts 273°
2026-05-08 02:48 35.71006 15.19389 36933 ft 405 kts 273°
2026-05-08 02:49 35.71726 15.12525 36932 ft 405 kts 273°
2026-05-08 02:49 35.72442 15.05655 36927 ft 405 kts 273°
2026-05-08 02:50 35.73150 14.98831 36928 ft 405 kts 273°
2026-05-08 02:50 35.73858 14.91960 36959 ft 405 kts 273°
2026-05-08 02:51 35.74565 14.85080 36926 ft 405 kts 272°
2026-05-08 02:51 35.75266 14.78197 36921 ft 405 kts 272°
2026-05-08 02:52 35.75964 14.71314 36919 ft 405 kts 272°
2026-05-08 02:52 35.76653 14.64479 36914 ft 405 kts 272°
2026-05-08 02:53 35.77343 14.57590 36911 ft 405 kts 272°
2026-05-08 02:53 35.78029 14.50703 36913 ft 405 kts 272°
2026-05-08 02:54 35.78712 14.43811 36911 ft 405 kts 272°
2026-05-08 02:54 35.79386 14.36963 36913 ft 405 kts 272°
2026-05-08 02:55 35.80397 14.26622 36914 ft 405 kts 272°
2026-05-08 02:56 35.81065 14.19727 36923 ft 406 kts 272°
2026-05-08 02:56 35.81727 14.12865 36917 ft 406 kts 272°
2026-05-08 02:57 35.82388 14.05962 36922 ft 406 kts 272°
2026-05-08 02:57 35.83047 13.99046 36922 ft 406 kts 272°
2026-05-08 02:58 35.83698 13.92169 36925 ft 407 kts 272°
2026-05-08 02:58 35.84348 13.85253 36965 ft 407 kts 272°
2026-05-08 02:59 35.84996 13.78325 36954 ft 406 kts 272°
2026-05-08 02:59 35.85639 13.71411 36932 ft 406 kts 272°
2026-05-08 03:00 35.86276 13.64511 36934 ft 405 kts 272°
2026-05-08 03:00 35.86903 13.57676 36932 ft 404 kts 272°
2026-05-08 03:01 35.87529 13.50801 36920 ft 403 kts 272°
2026-05-08 03:01 35.88152 13.43931 36936 ft 403 kts 272°
2026-05-08 03:02 35.88768 13.37075 36928 ft 402 kts 272°
2026-05-08 03:02 35.89375 13.30278 36919 ft 401 kts 272°
2026-05-08 03:03 35.89981 13.23444 36914 ft 401 kts 272°
2026-05-08 03:03 35.90584 13.16615 36909 ft 400 kts 272°
2026-05-08 03:04 35.91182 13.09791 36911 ft 401 kts 271°
2026-05-08 03:04 35.91773 13.02998 36908 ft 401 kts 271°
2026-05-08 03:05 35.92365 12.96155 36910 ft 401 kts 271°
2026-05-08 03:05 35.92953 12.89305 36909 ft 402 kts 271°
2026-05-08 03:06 35.93534 12.82494 36911 ft 402 kts 271°
2026-05-08 03:06 35.94116 12.75633 36918 ft 402 kts 271°
2026-05-08 03:07 35.94694 12.68754 36897 ft 404 kts 271°
2026-05-08 03:07 35.95272 12.61841 36906 ft 405 kts 271°
2026-05-08 03:08 35.95846 12.54925 36917 ft 406 kts 271°
2026-05-08 03:08 35.96418 12.47988 36920 ft 406 kts 271°
2026-05-08 03:09 35.96982 12.41088 36921 ft 407 kts 271°
2026-05-08 03:09 35.97548 12.34112 36885 ft 410 kts 272°
2026-05-08 03:10 35.98114 12.27098 36899 ft 411 kts 272°
2026-05-08 03:10 35.98675 12.20100 36911 ft 413 kts 271°
2026-05-08 03:11 35.99236 12.13039 36921 ft 414 kts 271°
2026-05-08 03:11 35.99795 12.05952 36930 ft 415 kts 271°
2026-05-08 03:12 36.00352 11.98844 36900 ft 417 kts 272°
2026-05-08 03:12 36.00907 11.91748 36909 ft 418 kts 272°
2026-05-08 03:13 36.01463 11.84596 36918 ft 419 kts 272°
2026-05-08 03:13 36.02016 11.77421 36922 ft 420 kts 272°
2026-05-08 03:14 36.02565 11.70239 36927 ft 420 kts 272°
2026-05-08 03:14 36.03106 11.63092 36902 ft 422 kts 272°
2026-05-08 03:15 36.03650 11.55871 36909 ft 423 kts 272°
2026-05-08 03:15 36.04122 11.48638 36915 ft 423 kts 270°
2026-05-08 03:16 36.04325 11.41382 36920 ft 423 kts 270°
2026-05-08 03:16 36.04588 11.34166 36923 ft 423 kts 270°
2026-05-08 03:17 36.04847 11.26894 36922 ft 424 kts 270°
2026-05-08 03:17 36.05096 11.19611 36925 ft 424 kts 270°
2026-05-08 03:18 36.05338 11.12327 36923 ft 424 kts 270°
2026-05-08 03:18 36.05573 11.05092 36921 ft 424 kts 270°
2026-05-08 03:19 36.05805 10.97813 36922 ft 424 kts 270°
2026-05-08 03:19 36.06032 10.90540 36923 ft 423 kts 270°
2026-05-08 03:20 36.06255 10.83277 36914 ft 423 kts 270°
2026-05-08 03:20 36.06474 10.76009 36914 ft 423 kts 270°
2026-05-08 03:21 36.06686 10.68793 36907 ft 423 kts 270°
2026-05-08 03:21 36.06896 10.61528 36905 ft 423 kts 270°
2026-05-08 03:22 36.07101 10.54262 36915 ft 423 kts 270°
2026-05-08 03:22 36.07382 10.46998 36917 ft 424 kts 274°
2026-05-08 03:23 36.08440 10.39871 36917 ft 427 kts 282°
2026-05-08 03:23 36.10260 10.32864 36916 ft 428 kts 284°
2026-05-08 03:24 36.12125 10.25872 36924 ft 428 kts 284°
2026-05-08 03:24 36.13969 10.18922 36926 ft 428 kts 284°
2026-05-08 03:25 36.15528 10.11838 36923 ft 425 kts 277°
2026-05-08 03:25 36.16423 10.04611 36922 ft 425 kts 276°
2026-05-08 03:26 36.17319 9.97376 36928 ft 426 kts 276°
2026-05-08 03:26 36.18210 9.90134 36931 ft 426 kts 276°
2026-05-08 03:27 36.19085 9.82942 36943 ft 426 kts 276°
2026-05-08 03:27 36.19962 9.75681 36937 ft 427 kts 276°
2026-05-08 03:28 36.20836 9.68416 36937 ft 427 kts 276°
2026-05-08 03:28 36.21707 9.61143 36945 ft 427 kts 276°
2026-05-08 03:29 36.22567 9.53914 36946 ft 427 kts 276°
2026-05-08 03:29 36.23429 9.46635 36945 ft 427 kts 276°
2026-05-08 03:30 36.24711 9.35728 36967 ft 426 kts 276°
2026-05-08 03:31 36.26850 9.21365 36954 ft 425 kts 280°
2026-05-08 03:32 36.28666 9.10615 36944 ft 424 kts 279°
2026-05-08 03:32 36.29837 9.03442 36952 ft 425 kts 279°
2026-05-08 03:33 36.30994 8.96314 36958 ft 424 kts 279°
2026-05-08 03:33 36.32155 8.89139 36951 ft 424 kts 279°
2026-05-08 03:34 36.33310 8.81970 36950 ft 424 kts 279°
2026-05-08 03:34 36.34462 8.74792 36956 ft 424 kts 279°
2026-05-08 03:35 36.35602 8.67657 36946 ft 425 kts 279°
2026-05-08 03:35 36.36748 8.60465 36951 ft 425 kts 279°
2026-05-08 03:36 36.37890 8.53261 36957 ft 426 kts 279°
2026-05-08 03:36 36.39029 8.46047 36961 ft 426 kts 279°
2026-05-08 03:37 36.40145 8.38879 36958 ft 426 kts 277°
2026-05-08 03:37 36.40697 8.31581 36944 ft 424 kts 271°
2026-05-08 03:38 36.40951 8.24253 36961 ft 425 kts 271°
2026-05-08 03:38 36.41227 8.16913 36972 ft 426 kts 271°
2026-05-08 03:39 36.41491 8.09607 36978 ft 427 kts 271°
2026-05-08 03:39 36.41751 8.02252 36983 ft 427 kts 271°
2026-05-08 03:40 36.42005 7.94893 36980 ft 427 kts 271°
2026-05-08 03:40 36.42254 7.87516 36976 ft 428 kts 271°
2026-05-08 03:41 36.42499 7.80185 36981 ft 428 kts 271°
2026-05-08 03:41 36.42740 7.72802 36979 ft 428 kts 271°
2026-05-08 03:42 36.42977 7.65421 36980 ft 428 kts 271°
2026-05-08 03:42 36.43209 7.58043 36986 ft 428 kts 271°
2026-05-08 03:43 36.43434 7.50715 36980 ft 428 kts 271°
2026-05-08 03:43 36.43657 7.43332 36967 ft 428 kts 271°
2026-05-08 03:44 36.43877 7.35950 36963 ft 428 kts 271°
2026-05-08 03:44 36.44091 7.28558 36977 ft 429 kts 271°
2026-05-08 03:45 36.44299 7.21215 36987 ft 429 kts 271°
2026-05-08 03:45 36.44504 7.13806 36984 ft 429 kts 271°
2026-05-08 03:46 36.44705 7.06395 36989 ft 429 kts 271°
2026-05-08 03:46 36.44902 6.98982 36997 ft 429 kts 271°
2026-05-08 03:47 36.45092 6.91619 36999 ft 429 kts 271°
2026-05-08 03:47 36.45280 6.84210 37007 ft 429 kts 270°
2026-05-08 03:48 36.45462 6.76805 36990 ft 430 kts 271°
2026-05-08 03:48 36.45641 6.69379 37009 ft 431 kts 271°
2026-05-08 03:49 36.45815 6.61938 37008 ft 431 kts 271°
2026-05-08 03:49 36.45984 6.54543 36989 ft 431 kts 270°
2026-05-08 03:50 36.46149 6.47096 36993 ft 431 kts 270°
2026-05-08 03:50 36.46309 6.39639 36985 ft 432 kts 271°
2026-05-08 03:51 36.46466 6.32184 36987 ft 432 kts 271°
2026-05-08 03:51 36.46617 6.24768 36988 ft 432 kts 271°
2026-05-08 03:52 36.46764 6.17299 36989 ft 433 kts 270°
2026-05-08 03:52 36.46906 6.09828 36990 ft 433 kts 270°
2026-05-08 03:53 36.47044 6.02351 36987 ft 433 kts 271°
2026-05-08 03:53 36.47176 5.94919 36987 ft 433 kts 271°
2026-05-08 03:54 36.47307 5.87437 36993 ft 434 kts 271°
2026-05-08 03:54 36.47432 5.79937 37000 ft 434 kts 270°
2026-05-08 03:55 36.47548 5.72435 37001 ft 434 kts 270°
2026-05-08 03:55 36.47660 5.64931 36999 ft 434 kts 270°
2026-05-08 03:56 36.47768 5.57483 37002 ft 434 kts 270°
2026-05-08 03:56 36.47872 5.49990 37001 ft 434 kts 270°
2026-05-08 03:57 36.47971 5.42500 37000 ft 433 kts 270°
2026-05-08 03:57 36.48066 5.35024 37001 ft 433 kts 270°
2026-05-08 03:58 36.48155 5.27595 36993 ft 433 kts 270°
2026-05-08 03:58 36.48240 5.20126 36998 ft 432 kts 270°
2026-05-08 03:59 36.48320 5.12667 36996 ft 432 kts 270°
2026-05-08 03:59 36.48396 5.05214 36995 ft 431 kts 270°
2026-05-08 04:00 36.48336 4.99032 36982 ft 431 kts 266°
2026-05-08 04:00 36.47569 4.90443 36994 ft 430 kts 264°
2026-05-08 04:01 36.46900 4.83055 36991 ft 430 kts 264°
2026-05-08 04:01 36.46224 4.75668 36985 ft 430 kts 264°
2026-05-08 04:02 36.45657 4.69530 36990 ft 430 kts 264°
2026-05-08 04:02 36.44857 4.60952 36989 ft 430 kts 264°
2026-05-08 04:03 36.44165 4.53569 37023 ft 430 kts 263°
2026-05-08 04:03 36.43238 4.43768 37010 ft 429 kts 263°
2026-05-08 04:04 36.42537 4.36417 36993 ft 428 kts 263°
2026-05-08 04:04 36.41719 4.27902 36987 ft 427 kts 263°
2026-05-08 04:05 36.41130 4.21811 36972 ft 427 kts 263°
2026-05-08 04:05 36.40420 4.14503 37005 ft 426 kts 263°
2026-05-08 04:06 36.39705 4.07203 37001 ft 426 kts 263°
2026-05-08 04:06 36.38987 3.99912 36994 ft 425 kts 263°
2026-05-08 04:07 36.38271 3.92684 36994 ft 425 kts 263°
2026-05-08 04:07 36.37547 3.85419 36980 ft 424 kts 263°
2026-05-08 04:08 36.36819 3.78165 36972 ft 424 kts 263°
2026-05-08 04:08 36.36088 3.70918 36967 ft 423 kts 263°
2026-05-08 04:09 36.35358 3.63729 36972 ft 423 kts 263°
2026-05-08 04:09 36.34618 3.56487 36968 ft 423 kts 263°
2026-05-08 04:10 36.33874 3.49245 36970 ft 424 kts 263°
2026-05-08 04:10 36.33124 3.41992 36973 ft 424 kts 263°
2026-05-08 04:11 36.32374 3.34783 36979 ft 425 kts 263°
2026-05-08 04:11 36.31613 3.27506 36998 ft 426 kts 263°
2026-05-08 04:12 36.30847 3.20223 37004 ft 426 kts 263°
2026-05-08 04:12 36.30076 3.12940 37003 ft 426 kts 262°
2026-05-08 04:13 36.29300 3.05659 37007 ft 426 kts 262°
2026-05-08 04:13 36.28527 2.98438 37003 ft 426 kts 262°
2026-05-08 04:14 36.27744 2.91166 36997 ft 426 kts 262°
2026-05-08 04:14 36.26955 2.83897 36983 ft 426 kts 262°
2026-05-08 04:15 36.26163 2.76634 36984 ft 425 kts 262°
2026-05-08 04:15 36.25373 2.69429 36995 ft 425 kts 262°
2026-05-08 04:16 36.24574 2.62167 36995 ft 425 kts 262°
2026-05-08 04:16 36.23768 2.54930 36985 ft 424 kts 262°
2026-05-08 04:17 36.22958 2.47690 36985 ft 424 kts 262°
2026-05-08 04:17 36.22150 2.40503 36984 ft 424 kts 262°
2026-05-08 04:18 36.21332 2.33271 36979 ft 424 kts 262°
2026-05-08 04:18 36.20509 2.26036 36997 ft 424 kts 262°
2026-05-08 04:19 36.19684 2.18817 36992 ft 424 kts 262°
2026-05-08 04:19 36.18861 2.11653 36990 ft 423 kts 262°
2026-05-08 04:20 36.18027 2.04442 36984 ft 423 kts 262°
2026-05-08 04:20 36.17190 1.97236 36986 ft 423 kts 262°
2026-05-08 04:21 36.16350 1.90032 36999 ft 423 kts 262°
2026-05-08 04:21 36.15510 1.82845 37002 ft 422 kts 262°
2026-05-08 04:22 36.14671 1.75712 36993 ft 421 kts 262°
2026-05-08 04:22 36.13825 1.68546 36990 ft 421 kts 262°
2026-05-08 04:23 36.12974 1.61384 36991 ft 421 kts 262°
2026-05-08 04:23 36.12081 1.54236 36988 ft 420 kts 259°
2026-05-08 04:24 36.10538 1.47331 37003 ft 420 kts 251°
2026-05-08 04:24 36.08244 1.40685 37006 ft 420 kts 248°
2026-05-08 04:25 36.05865 1.34095 36982 ft 419 kts 248°
2026-05-08 04:25 36.03491 1.27517 36977 ft 419 kts 248°
2026-05-08 04:26 36.01125 1.20991 36974 ft 418 kts 248°
2026-05-08 04:26 35.98744 1.14442 36980 ft 418 kts 248°
2026-05-08 04:27 35.96362 1.07902 37007 ft 417 kts 248°
2026-05-08 04:27 35.93982 1.01382 37001 ft 416 kts 248°
2026-05-08 04:28 35.91618 0.94920 36978 ft 415 kts 248°
2026-05-08 04:28 35.89240 0.88432 36969 ft 415 kts 248°
2026-05-08 04:29 35.86864 0.81963 36967 ft 414 kts 248°
2026-05-08 04:29 35.84483 0.75493 36984 ft 414 kts 247°
2026-05-08 04:30 35.82120 0.69084 36981 ft 413 kts 247°
2026-05-08 04:30 35.79741 0.62650 36978 ft 412 kts 247°